^^
Daily Summary for December 26, 2021 Units:  English    Metric   Both
Daily Weekly Monthly Yearly Custom
  High: Low: Average:
Temperature: 38.0 °F 35.0 °F 36.3 °F
Dew Point: 36.0 °F 33.0 °F 34.4 °F
Humidity: 94% 90% 93%
Wind Speed: 27mph 0mph 10.2mph
Wind Gust: 26mph - -
Wind- - SE
Pressure: 30.2 in 29.9 in -
Precipitation: 0.130 in    
Historical Graphs
 
 
Tabular Data for December 26, 2021
Time Temperature Dew Point Pressure Wind Wind Speed Wind Gust Humidity Rainfall Rate (Hourly) solar
00:04 38.0 °F 36.0 °F 29.9 in ESE 18 mph 16 mph 94% 0.020 in 0.00 W/m2
00:09 38.0 °F 36.0 °F 29.9 in ESE 13 mph 17 mph 94% 0.020 in 0.00 W/m2
00:14 37.0 °F 36.0 °F 29.9 in ENE 18 mph 13 mph 94% 0.020 in 0.00 W/m2
00:19 37.0 °F 36.0 °F 29.9 in East 26 mph 17 mph 94% 0.020 in 0.00 W/m2
00:24 37.0 °F 36.0 °F 29.9 in SW 27 mph 14 mph 94% 0.020 in 0.00 W/m2
00:29 37.0 °F 36.0 °F 29.9 in ENE 23 mph 26 mph 94% 0.010 in 0.00 W/m2
00:34 37.0 °F 36.0 °F 29.9 in ESE 18 mph 23 mph 94% 0.010 in 0.00 W/m2
00:39 37.0 °F 36.0 °F 29.9 in East 21 mph 17 mph 94% 0.010 in 0.00 W/m2
00:44 37.0 °F 35.0 °F 29.9 in East 16 mph 21 mph 94% 0.000 in 0.00 W/m2
00:49 37.0 °F 35.0 °F 29.9 in East 23 mph 16 mph 94% 0.000 in 0.00 W/m2
00:54 37.0 °F 35.0 °F 29.9 in East 16 mph 23 mph 94% 0.000 in 0.00 W/m2
00:59 37.0 °F 35.0 °F 29.9 in North 23 mph 16 mph 94% 0.000 in 0.00 W/m2
01:04 37.0 °F 35.0 °F 29.9 in ESE 20 mph 23 mph 94% 0.000 in 0.00 W/m2
01:09 37.0 °F 35.0 °F 29.9 in ESE 18 mph 20 mph 94% 0.000 in 0.00 W/m2
01:14 37.0 °F 35.0 °F 29.9 in East 18 mph 17 mph 94% 0.000 in 0.00 W/m2
01:19 36.0 °F 35.0 °F 29.9 in SE 13 mph 17 mph 94% 0.000 in 0.00 W/m2
01:24 36.0 °F 35.0 °F 30.0 in ESE 18 mph 13 mph 94% 0.000 in 0.00 W/m2
01:29 36.0 °F 35.0 °F 30.0 in ESE 11 mph 17 mph 94% 0.000 in 0.00 W/m2
01:34 37.0 °F 35.0 °F 30.0 in East 13 mph 9 mph 94% 0.000 in 0.00 W/m2
01:39 37.0 °F 35.0 °F 30.0 in ESE 20 mph 13 mph 94% 0.000 in 0.00 W/m2
01:44 37.0 °F 35.0 °F 30.0 in SE 10 mph 20 mph 94% 0.000 in 0.00 W/m2
01:49 37.0 °F 35.0 °F 30.0 in SE 18 mph 14 mph 94% 0.000 in 0.00 W/m2
01:54 37.0 °F 35.0 °F 30.0 in ENE 17 mph 17 mph 94% 0.000 in 0.00 W/m2
01:59 36.0 °F 35.0 °F 30.0 in ESE 16 mph 16 mph 94% 0.000 in 0.00 W/m2
02:04 36.0 °F 35.0 °F 30.0 in SE 20 mph 16 mph 94% 0.000 in 0.00 W/m2
02:09 36.0 °F 35.0 °F 30.0 in SSE 19 mph 20 mph 94% 0.000 in 0.00 W/m2
02:14 36.0 °F 35.0 °F 30.0 in East 20 mph 20 mph 94% 0.000 in 0.00 W/m2
02:19 36.0 °F 35.0 °F 30.0 in ESE 16 mph 16 mph 94% 0.000 in 0.00 W/m2
02:24 36.0 °F 35.0 °F 30.0 in ESE 11 mph 7 mph 94% 0.000 in 0.00 W/m2
02:29 36.0 °F 35.0 °F 30.0 in SE 20 mph 10 mph 94% 0.000 in 0.00 W/m2
02:34 36.0 °F 35.0 °F 30.0 in ESE 11 mph 20 mph 94% 0.000 in 0.00 W/m2
02:39 36.0 °F 35.0 °F 30.0 in ESE 20 mph 20 mph 94% 0.000 in 0.00 W/m2
02:40 36.0 °F 35.0 °F 30.0 in ESE 3 mph 16 mph 94% 0.000 in 0.00 W/m2
02:49 36.0 °F 35.0 °F 30.0 in NE 14 mph 9 mph 94% 0.000 in 0.00 W/m2
02:54 36.0 °F 35.0 °F 30.0 in ESE 11 mph 14 mph 94% 0.000 in 0.00 W/m2
02:59 36.0 °F 35.0 °F 30.0 in ESE 11 mph 10 mph 94% 0.000 in 0.00 W/m2
03:04 36.0 °F 35.0 °F 30.0 in East 18 mph 10 mph 94% 0.000 in 0.00 W/m2
03:09 36.0 °F 35.0 °F 30.0 in East 17 mph 17 mph 94% 0.000 in 0.00 W/m2
03:14 36.0 °F 35.0 °F 30.0 in East 11 mph 13 mph 94% 0.000 in 0.00 W/m2
03:19 36.0 °F 35.0 °F 30.0 in ESE 16 mph 13 mph 94% 0.000 in 0.00 W/m2
03:24 36.0 °F 34.0 °F 30.0 in East 16 mph 16 mph 94% 0.000 in 0.00 W/m2
03:29 36.0 °F 34.0 °F 30.0 in SE 18 mph 10 mph 94% 0.000 in 0.00 W/m2
03:34 36.0 °F 34.0 °F 30.0 in ENE 13 mph 17 mph 94% 0.000 in 0.00 W/m2
03:39 36.0 °F 34.0 °F 30.0 in North 13 mph 13 mph 94% 0.000 in 0.00 W/m2
03:44 36.0 °F 34.0 °F 30.0 in ENE 16 mph 15 mph 94% 0.000 in 0.00 W/m2
03:49 36.0 °F 34.0 °F 30.0 in ESE 16 mph 16 mph 94% 0.000 in 0.00 W/m2
03:54 36.0 °F 34.0 °F 30.0 in East 8 mph 16 mph 94% 0.000 in 0.00 W/m2
03:59 36.0 °F 34.0 °F 30.0 in East 18 mph 8 mph 94% 0.000 in 0.00 W/m2
04:04 36.0 °F 34.0 °F 30.0 in ESE 13 mph 17 mph 94% 0.000 in 0.00 W/m2
04:09 36.0 °F 34.0 °F 30.0 in ENE 9 mph 13 mph 94% 0.000 in 0.00 W/m2
04:14 36.0 °F 34.0 °F 30.0 in NNW 18 mph 17 mph 94% 0.000 in 0.00 W/m2
04:19 36.0 °F 34.0 °F 30.0 in East 16 mph 16 mph 94% 0.000 in 0.00 W/m2
04:24 36.0 °F 34.0 °F 30.0 in ESE 6 mph 16 mph 94% 0.000 in 0.00 W/m2
04:29 36.0 °F 34.0 °F 30.1 in East 7 mph 6 mph 94% 0.000 in 0.00 W/m2
04:34 36.0 °F 34.0 °F 30.1 in NE 11 mph 7 mph 94% 0.000 in 0.00 W/m2
04:39 35.0 °F 34.0 °F 30.1 in East 9 mph 10 mph 94% 0.000 in 0.00 W/m2
04:44 35.0 °F 34.0 °F 30.1 in ESE 7 mph 6 mph 94% 0.000 in 0.00 W/m2
04:49 35.0 °F 34.0 °F 30.1 in NNE 9 mph 7 mph 94% 0.000 in 0.00 W/m2
04:54 35.0 °F 34.0 °F 30.1 in SE 9 mph 9 mph 94% 0.000 in 0.00 W/m2
04:59 35.0 °F 34.0 °F 30.1 in NNE 7 mph 9 mph 94% 0.000 in 0.00 W/m2
05:04 35.0 °F 34.0 °F 30.1 in ESE 7 mph 7 mph 94% 0.000 in 0.00 W/m2
05:09 35.0 °F 34.0 °F 30.1 in ESE 7 mph 7 mph 94% 0.000 in 0.00 W/m2
05:14 35.0 °F 34.0 °F 30.1 in ESE 7 mph 6 mph 94% 0.000 in 0.00 W/m2
05:19 35.0 °F 34.0 °F 30.1 in ESE 7 mph 7 mph 94% 0.000 in 0.00 W/m2
05:24 35.0 °F 34.0 °F 30.1 in SE 6 mph 7 mph 94% 0.000 in 0.00 W/m2
05:29 35.0 °F 34.0 °F 30.1 in East 16 mph 9 mph 94% 0.000 in 0.00 W/m2
05:34 35.0 °F 34.0 °F 30.1 in East 13 mph 16 mph 94% 0.000 in 0.00 W/m2
05:39 35.0 °F 34.0 °F 30.1 in East 9 mph 13 mph 94% 0.000 in 0.00 W/m2
05:44 35.0 °F 34.0 °F 30.1 in SE 7 mph 7 mph 94% 0.000 in 0.00 W/m2
05:49 35.0 °F 33.0 °F 30.1 in ESE 16 mph 13 mph 94% 0.000 in 0.00 W/m2
05:54 35.0 °F 33.0 °F 30.1 in SE 6 mph 16 mph 94% 0.000 in 0.00 W/m2
05:59 35.0 °F 33.0 °F 30.1 in SSE 2 mph 6 mph 94% 0.000 in 0.00 W/m2
06:04 35.0 °F 33.0 °F 30.1 in SE 13 mph 7 mph 94% 0.000 in 0.00 W/m2
06:09 35.0 °F 33.0 °F 30.1 in ESE 9 mph 13 mph 94% 0.000 in 0.00 W/m2
06:14 35.0 °F 33.0 °F 30.1 in ENE 6 mph 7 mph 94% 0.000 in 0.00 W/m2
06:19 35.0 °F 33.0 °F 30.1 in SE 9 mph 7 mph 94% 0.000 in 0.00 W/m2
06:24 35.0 °F 33.0 °F 30.1 in NE 5 mph 9 mph 94% 0.000 in 0.00 W/m2
06:29 35.0 °F 33.0 °F 30.1 in NNE 7 mph 6 mph 94% 0.000 in 0.00 W/m2
06:34 35.0 °F 33.0 °F 30.1 in North 7 mph 7 mph 94% 0.000 in 0.00 W/m2
06:39 35.0 °F 33.0 °F 30.1 in NNE 9 mph 2 mph 94% 0.000 in 0.00 W/m2
06:44 35.0 °F 33.0 °F 30.1 in SE 6 mph 9 mph 94% 0.000 in 0.00 W/m2
06:49 35.0 °F 33.0 °F 30.1 in ENE 11 mph 6 mph 94% 0.000 in 0.00 W/m2
06:54 35.0 °F 33.0 °F 30.1 in NNE 7 mph 10 mph 93% 0.000 in 0.00 W/m2
06:59 35.0 °F 33.0 °F 30.1 in NNE 7 mph 7 mph 94% 0.000 in 0.00 W/m2
07:04 35.0 °F 33.0 °F 30.1 in NE 4 mph   94% 0.000 in 0.00 W/m2
07:09 35.0 °F 33.0 °F 30.1 in North 5 mph 3 mph 94% 0.000 in 0.00 W/m2
07:14 35.0 °F 33.0 °F 30.1 in North 6 mph 6 mph 94% 0.000 in 0.00 W/m2
07:19 35.0 °F 33.0 °F 30.1 in NE 7 mph 3 mph 94% 0.000 in 0.00 W/m2
07:24 35.0 °F 33.0 °F 30.1 in ESE 7 mph 7 mph 94% 0.000 in 0.00 W/m2
07:29 35.0 °F 33.0 °F 30.1 in SSE 4 mph 2 mph 93% 0.000 in 0.00 W/m2
07:34 35.0 °F 33.0 °F 30.1 in East 2 mph 3 mph 93% 0.000 in 5.00 W/m2
07:39 35.0 °F 33.0 °F 30.1 in North 6 mph 2 mph 93% 0.000 in 5.00 W/m2
07:44 35.0 °F 33.0 °F 30.1 in Calm   6 mph 93% 0.000 in 7.00 W/m2
07:49 35.0 °F 33.0 °F 30.1 in Calm     93% 0.000 in 23.00 W/m2
07:54 35.0 °F 33.0 °F 30.1 in NNW 4 mph 1 mph 93% 0.000 in 28.00 W/m2
07:59 35.0 °F 33.0 °F 30.1 in NNW 4 mph 3 mph 93% 0.000 in 28.00 W/m2
08:04 35.0 °F 33.0 °F 30.2 in North 6 mph 3 mph 93% 0.000 in 25.00 W/m2
08:09 35.0 °F 33.0 °F 30.2 in ENE 7 mph 6 mph 94% 0.000 in 39.00 W/m2
08:14 35.0 °F 33.0 °F 30.2 in North 7 mph 7 mph 94% 0.000 in 74.00 W/m2
08:19 35.0 °F 34.0 °F 30.2 in NNE 4 mph 3 mph 94% 0.000 in 74.00 W/m2
08:24 35.0 °F 34.0 °F 30.2 in North 6 mph 3 mph 94% 0.000 in 69.00 W/m2
08:29 35.0 °F 34.0 °F 30.2 in ENE 6 mph 6 mph 94% 0.000 in 77.00 W/m2
08:34 36.0 °F 34.0 °F 30.2 in NNW 6 mph 6 mph 94% 0.000 in 69.00 W/m2
08:39 36.0 °F 34.0 °F 30.2 in Calm   6 mph 93% 0.000 in 56.00 W/m2
08:44 36.0 °F 34.0 °F 30.2 in West 4 mph 2 mph 94% 0.000 in 54.00 W/m2
08:49 36.0 °F 34.0 °F 30.2 in East 6 mph 6 mph 94% 0.000 in 69.00 W/m2
08:54 36.0 °F 34.0 °F 30.2 in ESE 6 mph 3 mph 93% 0.000 in 76.00 W/m2
08:59 36.0 °F 34.0 °F 30.2 in ESE 4 mph 6 mph 93% 0.000 in 69.00 W/m2
09:04 36.0 °F 34.0 °F 30.2 in North 7 mph 3 mph 93% 0.000 in 56.00 W/m2
09:09 36.0 °F 34.0 °F 30.2 in NNE 7 mph 7 mph 93% 0.000 in 60.00 W/m2
09:14 36.0 °F 34.0 °F 30.2 in ESE 4 mph 1 mph 93% 0.000 in 62.00 W/m2
09:19 36.0 °F 34.0 °F 30.2 in North 7 mph 4 mph 93% 0.000 in 69.00 W/m2
09:24 36.0 °F 34.0 °F 30.2 in ENE 7 mph 7 mph 93% 0.000 in 63.00 W/m2
09:29 36.0 °F 34.0 °F 30.2 in North 7 mph 7 mph 93% 0.000 in 39.00 W/m2
09:34 36.0 °F 34.0 °F 30.2 in SE 4 mph 7 mph 92% 0.000 in 30.00 W/m2
09:39 36.0 °F 34.0 °F 30.2 in ENE 4 mph 3 mph 92% 0.000 in 37.00 W/m2
09:44 36.0 °F 34.0 °F 30.2 in NNW 7 mph 3 mph 92% 0.000 in 46.00 W/m2
09:49 37.0 °F 34.0 °F 30.2 in ENE 4 mph 7 mph 91% 0.000 in 46.00 W/m2
09:54 37.0 °F 34.0 °F 30.2 in NW 6 mph 2 mph 91% 0.000 in 47.00 W/m2
09:59 37.0 °F 34.0 °F 30.2 in ESE 7 mph 7 mph 91% 0.000 in 51.00 W/m2
10:04 37.0 °F 34.0 °F 30.2 in NNW 2 mph 6 mph 91% 0.000 in 40.00 W/m2
10:09 37.0 °F 34.0 °F 30.2 in East 6 mph 2 mph 91% 0.000 in 30.00 W/m2
10:14 37.0 °F 34.0 °F 30.2 in East 16 mph 6 mph 91% 0.000 in 42.00 W/m2
10:19 37.0 °F 34.0 °F 30.2 in East 13 mph 16 mph 91% 0.000 in 62.00 W/m2
10:24 37.0 °F 34.0 °F 30.2 in NE 7 mph 6 mph 91% 0.000 in 58.00 W/m2
10:29 37.0 °F 34.0 °F 30.2 in ENE 6 mph 7 mph 91% 0.000 in 69.00 W/m2
10:34 37.0 °F 35.0 °F 30.2 in North 9 mph 6 mph 91% 0.000 in 97.00 W/m2
10:39 37.0 °F 35.0 °F 30.2 in ESE 9 mph 9 mph 91% 0.000 in 97.00 W/m2
10:44 37.0 °F 35.0 °F 30.2 in NE 21 mph 9 mph 91% 0.000 in 105.00 W/m2
10:49 37.0 °F 35.0 °F 30.2 in NE 7 mph 21 mph 91% 0.000 in 109.00 W/m2
10:54 37.0 °F 35.0 °F 30.2 in North 11 mph 10 mph 91% 0.000 in 118.00 W/m2
10:59 38.0 °F 35.0 °F 30.2 in NE 9 mph 10 mph 91% 0.000 in 118.00 W/m2
11:04 38.0 °F 35.0 °F 30.2 in ENE 6 mph 9 mph 91% 0.000 in 111.00 W/m2
11:09 38.0 °F 36.0 °F 30.2 in North 9 mph 9 mph 91% 0.000 in 116.00 W/m2
11:14 38.0 °F 36.0 °F 30.2 in East 9 mph 9 mph 91% 0.000 in 88.00 W/m2
11:19 38.0 °F 36.0 °F 30.2 in North 9 mph 9 mph 91% 0.000 in 86.00 W/m2
11:24 38.0 °F 36.0 °F 30.2 in ENE 7 mph 7 mph 91% 0.000 in 118.00 W/m2
11:29 38.0 °F 35.0 °F 30.2 in North 13 mph 7 mph 90% 0.000 in 123.00 W/m2
11:34 38.0 °F 36.0 °F 30.2 in WNW 9 mph 13 mph 90% 0.000 in 104.00 W/m2
11:39 38.0 °F 36.0 °F 30.2 in ENE 9 mph 9 mph 91% 0.000 in 86.00 W/m2
11:44 38.0 °F 36.0 °F 30.2 in North 11 mph 9 mph 91% 0.000 in 95.00 W/m2
11:49 38.0 °F 36.0 °F 30.2 in North 16 mph 10 mph 91% 0.010 in 67.00 W/m2
11:54 38.0 °F 36.0 °F 30.2 in NE 11 mph 16 mph 91% 0.010 in 91.00 W/m2
11:59 38.0 °F 35.0 °F 30.2 in NNE 10 mph 10 mph 90% 0.020 in 77.00 W/m2
12:03 38.0 °F 35.0 °F 30.2 in North 6 mph 9 mph 91% 0.020 in 116.00 W/m2
12:09 38.0 °F 35.0 °F 30.2 in North 10 mph 9 mph 91% 0.020 in 118.00 W/m2
12:14 38.0 °F 35.0 °F 30.2 in North 7 mph 10 mph 91% 0.020 in 107.00 W/m2
12:19 38.0 °F 35.0 °F 30.2 in North 9 mph 7 mph 91% 0.020 in 95.00 W/m2
12:24 38.0 °F 36.0 °F 30.2 in North 9 mph 9 mph 91% 0.020 in 95.00 W/m2
12:29 38.0 °F 36.0 °F 30.2 in NE 9 mph 9 mph 92% 0.020 in 97.00 W/m2
12:34 38.0 °F 36.0 °F 30.2 in SE 9 mph 6 mph 92% 0.020 in 90.00 W/m2
12:39 38.0 °F 36.0 °F 30.2 in NNE 11 mph 9 mph 92% 0.020 in 81.00 W/m2
12:44 38.0 °F 36.0 °F 30.2 in NNE 16 mph 11 mph 92% 0.020 in 72.00 W/m2
12:49 38.0 °F 36.0 °F 30.2 in NNW 9 mph 16 mph 92% 0.020 in 51.00 W/m2
12:54 38.0 °F 36.0 °F 30.2 in NE 9 mph 9 mph 91% 0.010 in 54.00 W/m2
12:59 38.0 °F 36.0 °F 30.2 in SSW 7 mph 9 mph 91% 0.010 in 51.00 W/m2
13:04 38.0 °F 35.0 °F 30.2 in ENE 11 mph 7 mph 91% 0.010 in 33.00 W/m2
13:09 38.0 °F 35.0 °F 30.2 in NNE 9 mph 10 mph 91% 0.010 in 32.00 W/m2
13:14 37.0 °F 35.0 °F 30.2 in NNE 7 mph 9 mph 91% 0.010 in 54.00 W/m2
13:19 37.0 °F 35.0 °F 30.2 in NNW 2 mph 6 mph 91% 0.010 in 54.00 W/m2
13:24 37.0 °F 35.0 °F 30.2 in NNE 9 mph 9 mph 92% 0.010 in 30.00 W/m2
13:29 37.0 °F 35.0 °F 30.2 in North 7 mph 3 mph 92% 0.010 in 37.00 W/m2
13:34 37.0 °F 35.0 °F 30.2 in East 13 mph 7 mph 92% 0.020 in 37.00 W/m2
13:39 37.0 °F 35.0 °F 30.2 in North 11 mph 13 mph 92% 0.020 in 42.00 W/m2
13:44 37.0 °F 35.0 °F 30.2 in East 16 mph 10 mph 92% 0.020 in 40.00 W/m2
13:49 37.0 °F 35.0 °F 30.2 in NE 16 mph 16 mph 92% 0.020 in 30.00 W/m2
13:54 37.0 °F 35.0 °F 30.2 in NNW 9 mph 10 mph 92% 0.020 in 39.00 W/m2
13:59 37.0 °F 35.0 °F 30.2 in North 16 mph 9 mph 92% 0.020 in 28.00 W/m2
14:04 37.0 °F 35.0 °F 30.2 in NNE 7 mph 16 mph 92% 0.030 in 23.00 W/m2
14:09 37.0 °F 35.0 °F 30.2 in SE 9 mph 7 mph 92% 0.030 in 28.00 W/m2
14:14 37.0 °F 35.0 °F 30.2 in NNE 6 mph 9 mph 92% 0.030 in 30.00 W/m2
14:19 37.0 °F 35.0 °F 30.2 in ENE 9 mph 6 mph 92% 0.030 in 25.00 W/m2
14:24 37.0 °F 35.0 °F 30.2 in North 6 mph 9 mph 92% 0.030 in 23.00 W/m2
14:29 37.0 °F 35.0 °F 30.2 in NE 7 mph 6 mph 92% 0.040 in 25.00 W/m2
14:34 37.0 °F 34.0 °F 30.2 in NNE 13 mph 10 mph 92% 0.040 in 23.00 W/m2
14:39 36.0 °F 34.0 °F 30.2 in East 9 mph 13 mph 92% 0.040 in 16.00 W/m2
14:44 36.0 °F 34.0 °F 30.2 in WSW 7 mph 9 mph 92% 0.040 in 16.00 W/m2
14:49 36.0 °F 34.0 °F 30.2 in NE 7 mph 7 mph 92% 0.050 in 18.00 W/m2
14:54 36.0 °F 34.0 °F 30.2 in SSE 11 mph 7 mph 92% 0.050 in 18.00 W/m2
14:59 36.0 °F 34.0 °F 30.2 in North 7 mph 10 mph 92% 0.050 in 18.00 W/m2
15:04 36.0 °F 34.0 °F 30.2 in North 9 mph 7 mph 92% 0.060 in 14.00 W/m2
15:09 36.0 °F 34.0 °F 30.2 in ENE 6 mph 9 mph 92% 0.050 in 19.00 W/m2
15:14 36.0 °F 34.0 °F 30.2 in ENE 9 mph 6 mph 92% 0.050 in 25.00 W/m2
15:19 36.0 °F 34.0 °F 30.2 in North 6 mph 9 mph 93% 0.050 in 23.00 W/m2
15:24 36.0 °F 34.0 °F 30.2 in NE 6 mph 6 mph 93% 0.050 in 23.00 W/m2
15:29 36.0 °F 34.0 °F 30.2 in NNW 11 mph 7 mph 93% 0.040 in 21.00 W/m2
15:34 36.0 °F 34.0 °F 30.2 in North 11 mph 10 mph 93% 0.040 in 19.00 W/m2
15:39 36.0 °F 34.0 °F 30.2 in NNE 9 mph 10 mph 93% 0.030 in 14.00 W/m2
15:44 36.0 °F 34.0 °F 30.2 in East 18 mph 9 mph 93% 0.040 in 11.00 W/m2
15:49 36.0 °F 34.0 °F 30.2 in North 7 mph 17 mph 93% 0.040 in 9.00 W/m2
15:54 36.0 °F 34.0 °F 30.2 in NNE 2 mph 7 mph 93% 0.030 in 9.00 W/m2
15:58 36.0 °F 34.0 °F 30.2 in NNW 6 mph 6 mph 93% 0.030 in 7.00 W/m2
16:00 36.0 °F 34.0 °F 30.2 in Calm   6 mph 93% 0.000 in 7.00 W/m2
El Dorado Weather
Compliments of Weather Underground - 2 mb